Regional Weather Roundup
Issued by NWS

Home | Current Version | Previous Version | Text Only | Print | Product List | Glossary Off
Versions: 1 2 3 4 5 6 7 8 9 10 11 12 13 14 15 16 17 18 19 20 21 22 23 24 25 26 27 28 29 30 31 32 33 34 35 36 37 38 39 40 41 42 43 44 45 46 47 48 49 50

000
ASUS44 KMEG 271710
RWRTN
TENNESSEE HOURLY STATE WEATHER ROUNDUP
NATIONAL WEATHER SERVICE MEMPHIS TN
1200 PM CDT TUE SEP 27 2016

TNZ002-004-019-021-049-052-054-088>092-271800-
WEST TENNESSEE

CITY           SKY/WX    TMP DP  RH WIND       PRES   REMARKS
MEMPHIS INTL   FAIR      76  43  30 CALM      30.04F
NWS MEMPHIS      N/A     74 N/A N/A MISG        N/A
JACKSON        FAIR     N/A N/A N/A N8        30.04F
DYERSBURG      FAIR     N/A N/A N/A MISG        N/A
UNION CITY     SUNNY     73  45  35 VRB5      30.03F
PARIS          SUNNY     70  41  35 VRB5      30.05F
HUNTINGDON     SUNNY     73  43  33 NW6       30.03F
LEXINGTON      SUNNY     72  45  37 NE5       30.03F
$$

TNZ008-025-027-028-033-062-065-066-271800-
NORTH MIDDLE TENNESSEE

CITY           SKY/WX    TMP DP  RH WIND       PRES   REMARKS
NASHVILLE      FAIR      73  45  36 N8        30.03F
PORTLAND       SUNNY     70  37  30 CALM      30.03F
CLARKSVILLE    FAIR      73  40  30 MISG      30.03F
SMYRNA         FAIR      74  49  41 N7        30.03F
COOKEVILLE     SUNNY     73  46  38 N7        30.00F
GALLATIN       SUNNY     72  46  40 CALM      30.05F
CROSSVILLE     FAIR      74  38  27 VRB3      30.02F
$$

TNZ061-075-076-078-094-096-097-271800-
SOUTH MIDDLE TENNESSEE

CITY           SKY/WX    TMP DP  RH WIND       PRES   REMARKS
FAYETTEVILLE   SUNNY     75  54  46 VRB5      30.00F
TULLAHOMA      SUNNY     73  50  43 N6        30.01F
WINCHESTER     SUNNY     75  61  60 CALM      29.99F
MCMINNVILLE    SUNNY     75  46  35 VRB5      30.00F
COLUMBIA       SUNNY     73  50  43 VRB6      30.01F
SHELBYVILLE    SUNNY     77  48  36 NW8       30.01F
$$

TNZ017-018-042-046-047-271800-
NORTHEAST TENNESSEE

CITY           SKY/WX    TMP DP  RH WIND       PRES   REMARKS
TRI CITIES     PTSUNNY   69  62  78 SW8       30.00F
ELIZABETHTON   DRIZZLE   72  64  78 CALM      29.99F
$$

TNZ012-013-036-069-073-074-271800-
CENTRAL EAST TENNESSEE

CITY           SKY/WX    TMP DP  RH WIND       PRES   REMARKS
KNOXVILLE      CLOUDY    71  59  65 VRB3      29.98F
OAK RIDGE      FAIR      74  46  36 VRB3      29.99F
DOWNTOWN KNOXV PTSUNNY   75  57  53 CALM      29.98F
GATLINBURG     MOSUNNY   73  61  64 CALM      29.98F
MORRISTOWN     CLOUDY    72  61  68 CALM      29.98F
JACKSBORO      SUNNY     73  45  35 N6        30.01F
$$

TNZ083-085-099-271800-
SOUTHEAST TENNESSEE

CITY           SKY/WX    TMP DP  RH WIND       PRES   REMARKS
CHATTANOOGA    CLOUDY    73  65  75 N5        29.99F
$$

SKY/WX REPORTED AS FAIR MEANS FEW OR NO CLOUDS BELOW
12 THOUSAND FEET.




USA.gov is the U.S. government's official web portal to all federal, state and local government web resources and services.